CW5302 Weather Reports


Display with metric or nautical units.
time (UTC)temp
F
wind
direction
speed
MPH
gust
MPH
rain 1hr
in
rain 24hr
in
rain mn
in
humidity
%
barometer
mb
20260504220358 70 360 0.0 6.0 0.00 0.00 0.00 60 1009.4
20260504215327 70 322 2.0 6.0 0.00 0.00 0.00 62 1009.5
20260504214320 70 39 3.0 8.0 0.00 0.00 0.00 62 1009.6
20260504213316 69 319 4.0 8.0 0.00 0.00 0.00 61 1009.6
20260504212329 69 77 1.0 7.0 0.00 0.00 0.00 66 1009.8
20260504211320 68 350 1.0 6.0 0.00 0.00 0.00 64 1009.9
20260504210334 67 349 1.0 7.0 0.00 0.00 0.00 67 1009.9
20260504205325 68 346 1.0 7.0 0.00 0.00 0.00 62 1010.1
20260504204337 67 336 1.0 4.0 0.00 0.00 0.00 69 1010.2
20260504203351 66 244 1.0 9.0 0.00 0.00 0.00 63 1010.2
20260504202326 66 305 1.0 5.0 0.00 0.00 0.00 68 1010.4
20260504201325 65 86 0.0 3.0 0.00 0.00 0.00 68 1010.5
20260504200336 65 54 0.0 3.0 0.00 0.00 0.00 69 1010.5
20260504195332 64 284 1.0 5.0 0.00 0.00 0.00 69 1010.6
20260504194321 63 336 0.0 4.0 0.00 0.00 0.00 70 1010.7
20260504193335 63 57 0.0 3.0 0.00 0.00 0.00 70 1010.7
20260504192327 62 58 0.0 0.0 0.00 0.00 0.00 72 1010.8
20260504191319 62 113 0.0 0.0 0.00 0.00 0.00 75 1010.9
20260504190329 62 71 0.0 0.0 0.00 0.00 0.00 74 1010.9
20260504185327 61 70 0.0 0.0 0.00 0.00 0.00 73 1010.9
20260504184337 61 76 0.0 0.0 0.00 0.00 0.00 74 1011.1
20260504183330 60 78 0.0 3.0 0.00 0.00 0.00 75 1011.1
20260504182324 61 39 0.0 1.0 0.00 0.00 0.00 75 1011.0
20260504181357 60 35 0.0 4.0 0.00 0.00 0.00 75 1011.0
20260504180326 60 88 0.0 0.0 0.00 0.00 0.00 76 1011.0
20260504175337 60 92 0.0 2.0 0.00 0.00 0.00 76 1011.0
20260504174329 60 323 0.0 0.0 0.00 0.00 0.00 77 1011.1
20260504173321 59 321 0.0 0.0 0.00 0.00 0.00 78 1011.1
20260504172333 59 321 0.0 1.0 0.00 0.00 0.00 77 1011.0
20260504171325 59 321 0.0 0.0 0.00 0.00 0.00 78 1010.9
20260504170322 58 321 0.0 0.0 0.00 0.00 0.00 78 1010.9
20260504160322 57 319 0.0 2.0 0.00 0.00 0.00 81 1010.9
20260504150319 56 319 0.0 1.0 0.00 0.00 0.00 84 1010.8
20260504141317 55 319 0.0 0.0 0.00 0.00 0.00 87 1010.4
20260504140351 55 319 0.0 0.0 0.00 0.00 0.00 87 1010.4
20260504130341 54 319 0.0 0.0 0.00 0.00 0.00 91 1009.8
20260504110318 54 319 0.0 0.0 0.00 0.00 0.00 88 1009.1
20260504100318 56 319 0.0 0.0 0.00 0.00 0.00 86 1008.8
20260504081319 59 319 0.0 0.0 0.00 0.00 0.00 79 1008.3
20260504080330 59 319 0.0 0.0 0.00 0.00 0.00 78 1008.3
20260504070327 62 325 0.0 0.0 0.00 0.00 0.00 75 1007.6
20260504050342 70 302 0.0 0.0 0.00 0.00 0.00 64 1005.8
20260504045329 70 302 1.0 6.0 0.00 0.00 0.00 62 1005.4
20260504044327 71 294 0.0 1.0 0.00 0.00 0.00 61 1005.2
20260504043324 72 293 0.0 7.0 0.00 0.00 0.00 60 1005.2
20260504042316 72 311 0.0 5.0 0.00 0.00 0.00 58 1004.9
20260504041331 72 252 0.0 3.0 0.00 0.00 0.00 56 1004.7
20260504040350 72 88 0.0 0.0 0.00 0.00 0.00 56 1004.7
20260504035342 72 88 0.0 0.0 0.00 0.00 0.00 55 1004.6
20260504034353 73 87 0.0 0.0 0.00 0.00 0.00 53 1004.6
20260504033323 73 88 0.0 5.0 0.00 0.00 0.00 52 1004.6
20260504032318 75 275 0.0 1.0 0.00 0.00 0.00 51 1003.7
20260504031335 76 275 0.0 1.0 0.00 0.00 0.00 47 1004.0
20260504030329 76 295 0.0 1.0 0.00 0.00 0.00 46 1004.0
20260504025321 77 273 0.0 3.0 0.00 0.00 0.00 47 1004.0
20260504024321 78 296 1.0 7.0 0.00 0.00 0.00 38 1003.6
20260504023334 78 303 1.0 4.0 0.00 0.00 0.00 35 1003.6
20260504022325 79 355 0.0 0.0 0.00 0.00 0.00 34 1003.6
20260504021320 79 344 0.0 2.0 0.00 0.00 0.00 33 1004.1
20260504020346 79 107 0.0 6.0 0.00 0.00 0.00 34 1004.1
20260504015338 79 139 5.0 14.0 0.00 0.00 0.00 37 1004.6
20260504014349 79 91 0.0 10.0 0.00 0.00 0.00 46 1004.5
20260504013321 79 117 2.0 6.0 0.00 0.00 0.00 51 1004.5
20260504012335 81 136 0.0 0.0 0.00 0.00 0.00 47 1003.7
20260504011325 82 136 0.0 5.0 0.00 0.00 0.00 47 1003.6
20260504010320 82 117 0.0 4.0 0.00 0.00 0.00 52 1003.6
20260504005318 81 109 2.0 6.0 0.00 0.00 0.00 49 1003.5
20260504004321 82 126 0.0 3.0 0.00 0.00 0.00 53 1003.5
20260504003328 83 126 0.0 0.0 0.00 0.00 0.00 47 1003.5
20260504002322 83 126 0.0 0.0 0.00 0.00 0.00 45 1003.5
20260504001316 83 126 0.0 4.0 0.00 0.00 0.00 43 1003.4
20260504000325 84 94 0.0 4.0 0.00 0.00 0.00 44 1003.4
20260503235336 85 107 1.0 4.0 0.00 0.00 0.00 43 1003.4
20260503234347 85 275 0.0 0.0 0.00 0.00 0.00 38 1003.5
20260503233321 86 275 0.0 1.0 0.00 0.00 0.00 38 1003.5
20260503232318 87 275 0.0 0.0 0.00 0.00 0.00 44 1003.5
20260503231329 88 275 0.0 2.0 0.00 0.00 0.00 36 1003.6
20260503230321 87 275 1.0 3.0 0.00 0.00 0.00 37 1003.6
20260503225333 86 14 0.0 3.0 0.00 0.00 0.00 41 1003.9
20260503224326 85 19 0.0 4.0 0.00 0.00 0.00 38 1004.1
20260503223337 85 5 0.0 2.0 0.00 0.00 0.00 43 1004.1
20260503222347 85 355 0.0 4.0 0.00 0.00 0.00 48 1004.1
20260503221319 85 5 0.0 1.0 0.00 0.00 0.00 46 1004.4